Starlink 37294

operational
NORAD ID: 68560 Int'l Des: 2026-070 Owner: SPXS Country: US Constellation: starlink
LEOCIRCULAR

Über Starlink 37294

Beschreibung wird geladen...

Live-Position

3D-Globus wird geladen...

Nächste Überflüge

Höhenverlauf

Altitude vs Time

uPlot chart will show altitude changes over time

Zweizeiliger Elementsatz

1 68560C 26070T 26093.78868056 .00623280 00000+0 76645-3 0 934
2 68560 53.1620 260.1767 0008621 284.2240 5.4526 16.06801535 10
Epoch: 3. Apr. 2026 • Age: 30 hours

Aktueller Status

Höhe 256.4 km
Geschwindigkeit 7.75 km/s
Subsatellitenpunkt 1.19°N, 148.1°E
Startdatum 2. Apr. 2026
Alter 1 days
Typ internet

Technische Details

Klassifizierung Payload
Masse 575.00 kg
Trockenmasse 530.00 kg
Gesamtmasse 575.00 kg
Länge 0.30 m
Durchmesser 4.10 m
Spannweite 29.00 m
Form Box + pan
Hersteller SPXS
Bus-Typ Starlink V2MO
Phasenstatus In Orbit
Besitzer/Staat SPXS/US

Große Konstellationen

Loading constellations...